#timestamp,LO_Frequency,Hit,StdDev 
1634770815.5,286046998.2,N
1634770835.3,286047001.6,N
1634770855.1,286047001.4,N
1634770875.9,286047002.7,N
1634770895.7,286047002.5,N
1634770915.5,286047002.4,N
1634770935.4,286047003.7,N
1634770955.2,286047002.4,N
1634770975.0,286047000.0,N
1634770975.9,286047000.0,N
1634770995.8,286047001.0,N
1634771015.6,286047000.3,N
1634771035.4,286046998.2,N
1634771055.3,286047000.8,N
1634771075.1,286047000.0,N
1634771095.8,286047002.5,N
1634771115.7,286047000.5,N
1634771135.5,286047000.3,N
1634771155.3,286047000.1,N
1634771175.2,286047001.5,N
1634771195.0,286047002.8,N
1634771195.9,286047002.8,N
1634771215.7,286047002.2,N
1634771235.6,286046999.8,N
1634771255.4,286047001.2,N
1634771275.2,286046998.2,N
1634771295.1,286047001.0,N
1634771296.0,286047001.0,N
1634771315.8,286047002.6,N
1634771335.6,286047002.6,N
1634771355.5,286047003.6,N
1634771375.3,286047002.0,N
1634771395.1,286047000.1,N
1634771415.9,286047004.2,N
1634771435.7,286047001.6,N
1634771455.6,286047000.0,N
1634771475.4,286047000.5,N
1634771495.2,286047004.2,N
1634771515.1,286047000.0,N
1634771516.0,286047000.0,N
1634771535.8,286046999.7,N
1634771555.6,286047001.9,N
1634771575.5,286047002.1,N
1634771595.3,286047001.7,N
1634771615.1,286047003.5,N
1634771635.9,286047003.1,N
1634771655.7,286047003.6,N
1634771675.5,286047003.4,N
1634771695.4,286047004.0,N
1634771715.2,286047001.7,N
1634771735.0,286047001.3,N
1634771735.9,286047001.3,N
1634771755.8,286047001.6,N
1634771775.6,286047002.5,N
1634771795.4,286047002.5,N
1634771815.3,286047001.7,N
1634771835.1,286046999.8,N
1634771836.0,286046999.8,N
1634771855.8,286047002.2,N
1634771875.7,286047001.9,N
1634771895.5,286047002.7,N
1634771915.3,286047001.9,N
1634771935.2,286047001.8,N
1634771955.9,286047001.9,N
1634771975.7,286047002.1,N
1634771995.6,286047002.2,N
1634772015.4,286047001.9,N
1634772035.2,286047000.2,N
1634772055.1,286047002.5,N
1634772056.0,286047002.5,N
1634772075.8,286047000.3,N
1634772095.6,286047000.0,N
1634772115.5,286047000.7,N
1634772135.3,286047000.0,N
1634772155.1,286047000.4,N
1634772175.9,286047002.5,N
1634772195.7,286047004.0,Y
1634772215.5,286047002.7,P
1634772235.4,286047002.7,P
1634772255.2,286047002.6,P
1634772275.0,286047002.4,Y
1634772275.9,286047002.4,P
1634772295.8,286046998.4,P
1634772315.6,286046999.5,N
1634772335.4,286046999.1,N
1634772355.3,286046998.3,N
1634772375.1,286046998.7,N
1634772395.8,286046999.0,N
1634772415.7,286046998.5,N
1634772435.5,286046997.0,N
1634772455.3,286046996.5,N
1634772475.2,286046999.3,N
1634772495.0,286046999.3,N
1634772495.9,286046999.3,N
1634772515.7,286046998.2,N
1634772535.6,286047000.6,N
1634772555.4,286047000.5,N
1634772575.2,286047000.5,N
1634772595.1,286046998.5,N
1634772596.0,286046998.5,N
1634772615.8,286046997.2,N
1634772635.6,286046996.5,N
1634772655.5,286046999.0,N
1634772675.3,286046999.0,N
1634772695.1,286046998.8,N
1634772715.9,286046998.2,N
1634772735.7,286046998.3,N
1634772755.5,286046998.2,N
1634772775.4,286046999.2,N
1634772795.2,286046999.1,N
1634772815.0,286046998.5,N
1634772815.9,286046998.5,N
1634772835.8,286046998.5,N
1634772855.6,286046998.2,N
1634772875.4,286047000.9,N
1634772895.3,286047000.2,N
1634772915.1,286046999.7,N
1634772935.9,286047000.5,N
1634772955.7,286047000.9,N
1634772975.5,286047000.1,N
1634772995.3,286047000.0,N
1634773015.2,286047001.0,N
1634773035.0,286046999.4,N
1634773035.9,286046999.4,N
1634773055.8,286046996.9,N
1634773075.6,286046999.2,N
1634773095.4,286046999.3,N
1634773115.3,286046998.7,N
1634773135.1,286046998.4,N
1634773136.0,286046998.4,N
1634773155.8,286046999.7,N
1634773175.7,286047000.0,N
1634773195.5,286047000.9,N
1634773215.3,286046998.8,N
1634773235.2,286046998.4,N
1634773255.9,286046998.6,N
1634773275.7,286046998.4,N
1634773295.6,286047000.6,N
1634773315.4,286047000.9,N
1634773335.2,286046998.8,N
1634773355.1,286047000.4,N
1634773356.0,286047000.4,N
1634773375.8,286047004.4,Y
1634773395.6,286047003.8,P
1634773415.5,286047002.2,N
1634773435.3,286046999.9,N
1634773455.1,286047001.1,N
1634773475.9,286047000.7,N
1634773495.7,286046999.0,N
1634773515.5,286047001.2,N
1634773535.4,286046998.6,N
1634773555.2,286047000.9,N
1634773575.0,286047000.6,N
1634773575.9,286047000.6,N
1634773595.8,286047000.1,N
1634773615.6,286047001.9,N
1634773635.4,286047002.3,N
1634773655.3,286047004.4,Y
1634773675.1,286047001.2,P
1634773695.8,286047001.1,P
1634773715.7,286046998.4,P
1634773735.5,286046998.6,N
1634773755.3,286047002.7,N
1634773775.2,286047004.4,N
1634773795.9,286047003.8,N
1634773815.7,286047001.9,N
1634773835.6,286046999.7,N
1634773855.4,286047002.3,N
1634773875.2,286047000.4,N
1634773895.1,286047000.5,N
1634773896.0,286047000.5,N
1634773915.8,286047000.1,N
1634773935.6,286046998.1,N
1634773955.5,286047000.8,N
1634773975.3,286047000.9,N
1634773995.1,286047001.1,N
1634774015.9,286047001.0,N
1634774035.7,286047000.2,N
1634774055.5,286047000.1,N
1634774075.4,286047002.8,N
1634774095.2,286047002.6,N
1634774115.0,286047000.2,N
1634774115.9,286047000.2,N
1634774135.8,286047001.0,N
1634774155.6,286046998.2,N
1634774175.4,286046999.7,N
1634774195.3,286047000.4,N
1634774215.1,286047001.1,N
1634774235.8,286047002.2,N
1634774255.7,286047002.8,N
1634774275.5,286047002.5,N
1634774295.3,286047000.3,N
1634774315.2,286047001.3,N
1634774335.0,286047003.2,N
1634774335.9,286047003.2,N
1634774355.8,286047001.6,N
1634774375.6,286047000.3,N
1634774395.4,286047000.4,N
